AP679 Weather Reports


time (UTC)temp
C
wind
direction
speed
KPH
gust
KPH
rain 1hr
cm
rain 24hr
cm
rain mn
cm
humidity
%
barometer
mb
20260507075503 14 37 3.2 9.7 0.00 0.00 0.00 71 1016.2
20260507075004 14 37 3.2 9.7 0.00 0.00 0.00 72 1016.2
20260507074504 14 37 3.2 9.7 0.00 0.00 0.00 72 1016.2
20260507074003 13 52 4.8 9.7 0.00 0.00 0.00 73 1016.1
20260507073504 13 50 3.2 9.7 0.00 0.00 0.00 73 1016.1
20260507073004 13 56 3.2 8.0 0.00 0.00 0.00 75 1016.1
20260507072504 13 33 3.2 4.8 0.00 0.00 0.00 77 1016.0
20260507072004 13 33 3.2 8.0 0.00 0.00 0.00 78 1016.0
20260507071004 13 34 6.4 11.3 0.00 0.00 0.00 80 1015.9
20260507070504 13 40 3.2 4.8 0.00 0.00 0.00 82 1016.0
20260507070008 12 40 3.2 4.8 0.00 0.00 0.00 84 1016.0
20260507065503 12 41 3.2 8.0 0.00 0.00 0.00 86 1015.9
20260507065004 12 42 3.2 4.8 0.00 0.00 0.00 89 1016.0
20260507064504 11 40 3.2 4.8 0.00 0.00 0.00 90 1016.0
20260507064003 11 40 0.0 8.0 0.00 0.00 0.00 91 1015.9
20260507063503 11 40 3.2 4.8 0.00 0.00 0.00 92 1015.9
20260507063004 10 40 3.2 4.8 0.00 0.00 0.00 92 1015.9
20260507062504 10 40 3.2 4.8 0.00 0.00 0.00 92 1015.9
20260507062004 10 40 3.2 8.0 0.00 0.00 0.00 92 1015.8
20260507061504 10 40 1.6 4.8 0.00 0.00 0.00 92 1015.8
20260507061003 10 40 1.6 4.8 0.00 0.00 0.00 92 1015.8
20260507060004 10 40 1.6 4.8 0.00 0.00 0.00 92 1015.6
20260507055504 10 40 3.2 4.8 0.00 0.00 0.00 92 1015.6
20260507055003 10 40 1.6 4.8 0.00 0.00 0.00 92 1015.6
20260507054503 10 40 1.6 4.8 0.00 0.00 0.00 92 1015.5
20260507054003 10 40 1.6 4.8 0.00 0.00 0.00 92 1015.4
20260507053504 10 40 1.6 4.8 0.00 0.00 0.00 92 1015.5
20260507053006 10 41 3.2 8.0 0.00 0.00 0.00 92 1015.4
20260507052504 10 42 1.6 4.8 0.00 0.00 0.00 92 1015.4
20260507051004 10 42 3.2 4.8 0.00 0.00 0.00 92 1015.2
20260507050504 10 43 3.2 4.8 0.00 0.00 0.00 92 1015.0
20260507050004 10 43 1.6 4.8 0.00 0.00 0.00 92 1015.1
20260507044504 10 43 0.0 1.6 0.00 0.00 0.00 91 1014.9
20260507044004 10 43 0.0 3.2 0.00 0.00 0.00 91 1014.8
20260507043004 10 44 0.0 3.2 0.00 0.00 0.00 91 1014.8
20260507042504 10 44 0.0 3.2 0.00 0.00 0.00 91 1014.7
20260507041504 10 44 0.0 4.8 0.00 0.00 0.00 91 1014.5
20260507041004 10 44 1.6 4.8 0.00 0.00 0.00 91 1014.5
20260507040504 10 44 0.0 0.0 0.00 0.00 0.00 90 1014.5
20260507040004 10 44 1.6 4.8 0.00 0.00 0.00 91 1014.5
20260507035504 10 44 0.0 4.8 0.00 0.00 0.00 90 1014.5
20260507035003 10 44 1.6 4.8 0.00 0.00 0.00 90 1014.5
20260507034504 10 44 1.6 4.8 0.00 0.00 0.00 90 1014.4
20260507034004 10 44 1.6 4.8 0.00 0.00 0.00 90 1014.4
20260507033504 10 44 1.6 4.8 0.00 0.00 0.00 89 1014.3
20260507033004 10 44 1.6 4.8 0.00 0.00 0.00 90 1014.3
20260507032504 10 44 3.2 8.0 0.00 0.00 0.00 89 1014.3
20260507032004 10 44 1.6 8.0 0.00 0.00 0.00 89 1014.2
20260507031504 10 44 3.2 4.8 0.00 0.00 0.00 89 1014.2
20260507031004 10 44 1.6 8.0 0.00 0.00 0.00 89 1014.2
20260507030504 10 44 3.2 8.0 0.00 0.00 0.00 88 1014.2
20260507025503 10 55 4.8 11.3 0.00 0.00 0.00 88 1014.1
20260507025004 11 57 3.2 11.3 0.00 0.00 0.00 88 1014.1
20260507024504 11 59 3.2 8.0 0.00 0.00 0.00 88 1014.1
20260507024004 11 60 3.2 8.0 0.00 0.00 0.00 88 1014.1
20260507023003 11 75 1.6 4.8 0.00 0.00 0.00 88 1014.1
20260507022504 11 75 1.6 4.8 0.00 0.00 0.00 88 1014.0
20260507022003 11 75 1.6 4.8 0.00 0.00 0.00 87 1014.0
20260507021503 11 82 0.0 3.2 0.00 0.00 0.00 87 1014.0
20260507021003 11 82 0.0 4.8 0.00 0.00 0.00 87 1014.0
20260507020503 11 82 0.0 4.8 0.00 0.00 0.00 87 1013.9
20260507020004 11 82 0.0 1.6 0.00 0.00 0.00 87 1013.8
20260507015504 11 82 0.0 3.2 0.00 0.00 0.00 87 1013.8
20260507015004 11 82 0.0 4.8 0.00 0.00 0.00 87 1013.7
20260507014504 11 82 0.0 3.2 0.00 0.00 0.00 87 1013.7
20260507013503 11 82 0.0 0.0 0.00 0.00 0.00 86 1013.8
20260507013004 11 82 0.0 0.0 0.00 0.00 0.00 85 1013.7
20260507012004 11 82 0.0 0.0 0.00 0.00 0.00 85 1013.8
20260507011004 11 82 0.0 1.6 0.00 0.00 0.00 85 1013.8
20260507010504 11 82 0.0 1.6 0.00 0.00 0.00 85 1013.8
20260507010004 11 82 0.0 4.8 0.00 0.00 0.00 84 1013.8
20260507005504 11 82 0.0 3.2 0.00 0.00 0.00 84 1013.7
20260507004504 11 82 0.0 0.0 0.00 0.00 0.00 84 1013.7
20260507004004 11 82 0.0 0.0 0.00 0.00 0.00 84 1013.7
20260507003504 11 82 0.0 0.0 0.00 0.00 0.00 84 1013.7
20260507003004 11 82 0.0 0.0 0.00 0.00 0.00 84 1013.7
20260507002504 11 82 0.0 0.0 0.00 0.00 0.00 84 1013.6
20260507002003 11 82 0.0 0.0 0.00 0.00 0.00 84 1013.6
20260507001504 11 82 0.0 0.0 0.00 0.00 0.00 84 1013.5
20260507001004 11 82 0.0 0.0 0.00 0.00 0.00 84 1013.5
20260507000504 11 82 0.0 0.0 0.00 0.00 0.00 84 1013.5
20260507000005 11 82 0.0 0.0 0.00 0.00 0.00 84 1013.6
20260506235504 11 82 0.0 0.0 0.00 0.00 0.00 84 1013.5
20260506235004 11 82 0.0 0.0 0.00 0.00 0.00 83 1013.5
20260506233504 11 82 0.0 0.0 0.00 0.00 0.00 83 1013.4
20260506233004 11 82 0.0 1.6 0.00 0.00 0.00 82 1013.4
20260506232004 11 82 0.0 4.8 0.00 0.00 0.00 82 1013.3
20260506231505 11 82 0.0 1.6 0.00 0.00 0.00 81 1013.3
20260506231003 11 82 0.0 0.0 0.00 0.00 0.00 81 1013.3
20260506230504 11 82 0.0 1.6 0.00 0.00 0.00 81 1013.2
20260506230004 11 82 0.0 4.8 0.00 0.00 0.00 81 1013.2
20260506224504 11 82 0.0 3.2 0.00 0.00 0.00 81 1013.1
20260506224003 11 82 0.0 1.6 0.00 0.00 0.00 81 1013.1
20260506223504 11 82 0.0 4.8 0.00 0.00 0.00 80 1013.1
20260506223004 11 82 1.6 4.8 0.00 0.00 0.00 80 1013.1
20260506222504 11 82 1.6 3.2 0.00 0.00 0.00 80 1013.1
20260506222004 12 82 0.0 1.6 0.00 0.00 0.00 79 1013.0
20260506221504 12 82 0.0 3.2 0.00 0.00 0.00 79 1013.0
20260506221003 12 82 0.0 4.8 0.00 0.00 0.00 78 1013.0
20260506220504 12 82 3.2 4.8 0.00 0.00 0.00 78 1013.1
20260506220004 12 83 0.0 3.2 0.00 0.00 0.00 78 1013.1
20260506215004 12 83 0.0 1.6 0.00 0.00 0.00 77 1013.1
20260506214504 12 83 0.0 3.2 0.00 0.00 0.00 77 1013.0
20260506214004 12 83 0.0 3.2 0.00 0.00 0.00 77 1012.9
20260506213504 12 83 1.6 3.2 0.00 0.00 0.00 77 1012.9
20260506213004 12 83 1.6 3.2 0.00 0.00 0.00 77 1012.8
20260506212504 12 83 0.0 3.2 0.00 0.00 0.00 76 1012.8
20260506212004 12 83 1.6 3.2 0.00 0.00 0.00 76 1012.7
20260506211504 12 83 0.0 1.6 0.00 0.00 0.00 76 1012.6
20260506211004 12 83 1.6 3.2 0.00 0.00 0.00 76 1012.6
20260506210004 12 83 0.0 0.0 0.00 0.00 0.00 76 1012.6
20260506205505 12 83 0.0 1.6 0.00 0.00 0.00 75 1012.6
20260506205004 12 83 0.0 4.8 0.00 0.00 0.00 75 1012.6
20260506204503 12 83 0.0 1.6 0.00 0.00 0.00 75 1012.4
20260506204004 12 83 1.6 9.7 0.00 0.00 0.00 74 1012.4
20260506203504 12 83 3.2 9.7 0.00 0.00 0.00 74 1012.3
20260506202503 12 85 1.6 9.7 0.00 0.00 0.00 74 1012.2
20260506202003 12 88 3.2 9.7 0.00 0.00 0.00 74 1012.3
20260506201503 12 84 6.4 12.9 0.00 0.00 0.00 74 1012.2
20260506200504 12 94 8.0 12.9 0.00 0.00 0.00 73 1012.2
20260506200005 12 61 3.2 11.3 0.00 0.00 0.00 73 1012.2
20260506195503 12 77 3.2 11.3 0.00 0.00 0.00 73 1012.1
20260506195004 12 61 6.4 16.1 0.00 0.00 0.00 73 1012.0
20260506194504 12 75 6.4 12.9 0.00 0.00 0.00 72 1011.9
20260506194004 12 74 4.8 11.3 0.00 0.00 0.00 73 1011.9
20260506193504 12 72 4.8 14.5 0.00 0.00 0.00 72 1011.9
20260506192004 12 92 1.6 12.9 0.00 0.00 0.00 73 1011.8
20260506191506 12 100 3.2 9.7 0.00 0.00 0.00 73 1011.7
20260506191003 12 80 4.8 14.5 0.00 0.00 0.00 73 1011.7
20260506190504 12 63 3.2 14.5 0.00 0.00 0.00 73 1011.7
20260506190005 12 70 4.8 11.3 0.00 0.00 0.00 73 1011.6
20260506185004 12 63 4.8 12.9 0.00 0.00 0.00 72 1011.5
20260506184504 12 48 6.4 16.1 0.00 0.00 0.00 71 1011.4
20260506183504 13 52 8.0 14.5 0.00 0.00 0.00 69 1011.4
20260506183006 13 49 8.0 16.1 0.00 0.00 0.00 69 1011.3
20260506182004 13 44 8.0 16.1 0.00 0.00 0.00 68 1011.1
20260506181504 13 61 8.0 16.1 0.00 0.00 0.00 68 1011.0
20260506181003 13 65 9.7 16.1 0.00 0.00 0.00 67 1011.0
20260506180504 13 52 3.2 11.3 0.00 0.00 0.00 68 1010.9
20260506180005 13 43 4.8 12.9 0.00 0.00 0.00 67 1010.8
20260506175504 13 52 4.8 14.5 0.00 0.00 0.00 67 1010.7
20260506175004 13 68 4.8 11.3 0.00 0.00 0.00 67 1010.7
20260506174504 13 48 4.8 12.9 0.00 0.00 0.00 66 1010.6
20260506173505 14 45 6.4 16.1 0.00 0.00 0.00 65 1010.5
20260506173004 14 60 4.8 12.9 0.00 0.00 0.00 65 1010.5
20260506172504 14 48 6.4 12.9 0.00 0.00 0.00 65 1010.4
20260506172004 14 54 4.8 12.9 0.00 0.00 0.00 65 1010.4
20260506170004 14 38 4.8 11.3 0.00 0.00 0.00 66 1010.3
20260506165504 14 53 4.8 12.9 0.00 0.00 0.00 66 1010.2
20260506165004 14 61 8.0 12.9 0.00 0.00 0.00 67 1010.1
20260506163504 14 29 3.2 12.9 0.00 0.00 0.00 69 1010.0
20260506162503 15 346 6.4 12.9 0.00 0.00 0.00 70 1010.0
20260506162004 15 351 6.4 12.9 0.00 0.00 0.00 69 1010.0
20260506161504 15 29 6.4 12.9 0.00 0.00 0.00 68 1009.9
20260506161004 15 11 4.8 11.3 0.00 0.00 0.00 68 1009.9
20260506160003 16 324 9.7 14.5 0.00 0.00 0.00 66 1009.9
20260506155504 15 16 9.7 14.5 0.00 0.00 0.00 66 1010.0
20260506154504 15 4 8.0 16.1 0.00 0.00 0.00 66 1010.0
20260506153504 15 326 6.4 12.9 0.00 0.00 0.00 69 1010.0
20260506153005 15 349 6.4 14.5 0.00 0.00 0.00 69 1010.0
20260506152504 14 329 4.8 12.9 0.00 0.00 0.00 70 1010.1
20260506140004 14 354 6.4 12.9 0.00 0.00 0.00 80 1009.9
20260506135504 14 321 8.0 16.1 0.00 0.00 0.00 81 1009.9
20260506135004 14 327 9.7 16.1 0.00 0.00 0.00 80 1009.9
20260506132003 14 326 8.0 14.5 0.00 0.00 0.00 73 1009.9
20260506131504 15 344 11.3 22.5 0.00 0.00 0.00 72 1009.8
20260506131004 15 321 9.7 19.3 0.00 0.00 0.00 71 1009.8
20260506130504 15 28 9.7 19.3 0.00 0.00 0.00 71 1009.8
20260506125503 15 33 4.8 16.1 0.00 0.00 0.00 71 1009.7
20260506125004 15 8 8.0 16.1 0.00 0.00 0.00 71 1009.7
20260506124504 15 321 8.0 19.3 0.00 0.00 0.00 72 1009.7
20260506124004 15 22 6.4 20.9 0.00 0.00 0.00 72 1009.7
20260506123504 15 3 6.4 12.9 0.00 0.00 0.00 73 1009.7
20260506123004 15 322 8.0 14.5 0.00 0.00 0.00 73 1009.6
20260506122504 15 323 8.0 19.3 0.00 0.00 0.00 74 1009.6
20260506122004 15 332 6.4 19.3 0.00 0.00 0.00 74 1009.6
20260506121004 15 344 6.4 16.1 0.00 0.00 0.00 75 1009.6
20260506120504 15 14 8.0 12.9 0.00 0.00 0.00 74 1009.6
20260506120004 15 319 9.7 19.3 0.00 0.00 0.00 74 1009.5
20260506115504 15 331 8.0 14.5 0.00 0.00 0.00 76 1009.5
20260506114504 15 324 8.0 14.5 0.00 0.00 0.00 75 1009.6
20260506114003 15 10 9.7 16.1 0.00 0.00 0.00 75 1009.5
20260506113503 15 328 9.7 19.3 0.00 0.00 0.00 73 1009.6
20260506113004 15 337 6.4 12.9 0.00 0.00 0.00 71 1009.5
20260506112503 16 320 9.7 16.1 0.00 0.00 0.00 72 1009.4
20260506112004 15 20 3.2 14.5 0.00 0.00 0.00 72 1009.4
20260506111503 15 36 6.4 14.5 0.00 0.00 0.00 74 1009.5
20260506111003 15 326 9.7 19.3 0.00 0.00 0.00 73 1009.6
20260506110004 15 346 9.7 22.5 0.00 0.00 0.00 76 1009.6
20260506105503 15 348 8.0 16.1 0.00 0.00 0.00 77 1009.6
20260506105004 15 35 6.4 19.3 0.00 0.00 0.00 78 1009.7
20260506104503 15 328 9.7 19.3 0.00 0.00 0.00 78 1009.6
20260506104004 15 31 6.4 14.5 0.00 0.00 0.00 80 1009.7
20260506103503 14 24 8.0 12.9 0.00 0.00 0.00 80 1009.7
20260506103004 14 334 9.7 16.1 0.00 0.00 0.00 81 1009.7
20260506102504 14 333 11.3 19.3 0.00 0.00 0.00 81 1009.6
20260506102004 14 22 8.0 16.1 0.00 0.00 0.00 82 1009.6
20260506101503 13 20 8.0 16.1 0.00 0.00 0.00 82 1009.6
20260506101004 13 0 4.8 14.5 0.00 0.00 0.00 83 1009.6
20260506100504 13 324 6.4 16.1 0.00 0.00 0.00 83 1009.6
20260506100004 13 337 9.7 19.3 0.00 0.00 0.00 84 1009.5
20260506095503 13 336 8.0 19.3 0.00 0.00 0.00 83 1009.5
20260506095004 13 321 9.7 20.9 0.00 0.00 0.00 84 1009.5
20260506094504 13 26 9.7 19.3 0.00 0.00 0.00 84 1009.4
20260506094004 13 335 8.0 16.1 0.00 0.00 0.00 86 1009.5
20260506092504 12 357 8.0 19.3 0.00 0.00 0.00 89 1009.5
20260506092004 12 9 9.7 19.3 0.00 0.00 0.00 89 1009.5
20260506091503 12 349 9.7 19.3 0.00 0.00 0.00 91 1009.5
20260506090504 12 334 9.7 25.7 0.00 0.00 0.00 92 1009.4
20260506090004 12 323 6.4 16.1 0.00 0.00 0.00 93 1009.3
20260506085504 11 24 8.0 16.1 0.00 0.00 0.00 93 1009.3
20260506085004 11 21 8.0 12.9 0.00 0.00 0.00 94 1009.3
20260506084505 11 342 9.7 19.3 0.00 0.00 0.00 94 1009.3
20260506084004 11 328 9.7 14.5 0.00 0.00 0.00 93 1009.3
20260506083503 11 18 3.2 11.3 0.00 0.00 0.00 93 1009.2
20260506083005 11 326 8.0 14.5 0.00 0.00 0.00 93 1009.2
20260506082504 10 23 6.4 16.1 0.00 0.00 0.00 92 1009.2
20260506082004 10 324 8.0 16.1 0.00 0.00 0.00 92 1009.2
20260506081503 10 327 4.8 11.3 0.00 0.00 0.00 92 1009.2
20260506081003 10 328 3.2 4.8 0.00 0.00 0.00 92 1009.2
20260506080504 10 328 3.2 12.9 0.00 0.00 0.00 92 1009.2